Location: Home
(42.5358°N, 72.7383°W)
Time: 17:48:31
(UTC-04:00)

ISS - Visible Passes

Search period start: 15 July 2024 00:00
Search period end: 25 July 2024 00:00
Orbit: 410 x 424 km, 51.6° (Epoch: 15 July)

Date Brightness Start Highest point End Pass type
(mag) Time Alt. Az. Time Alt. Az. Time Alt. Az.
15 Jul -1.6 00:53:54 10° NW 00:55:54 26° NNW 00:55:54 26° NNW visible
15 Jul -0.8 22:28:41 10° NW 22:30:56 17° N 22:33:12 10° NE visible
16 Jul -1.6 00:05:41 10° NW 00:08:30 25° NNE 00:08:43 25° NNE visible
16 Jul -0.9 21:39:58 10° NW 21:42:20 18° N 21:44:43 10° NE visible
16 Jul -1.3 23:17:23 10° NW 23:19:57 20° NNE 23:21:37 15° NE visible
17 Jul -1.0 00:53:50 10° NW 00:54:29 15° NW 00:54:29 15° NW visible
17 Jul -1.1 22:28:57 10° NW 22:31:19 18° N 22:33:42 10° NE visible
18 Jul -1.8 00:05:28 10° NW 00:07:23 28° NNW 00:07:23 28° NNW visible
18 Jul -1.0 21:40:20 10° NW 21:42:35 17° N 21:44:51 10° NE visible
18 Jul -2.2 23:17:03 10° NW 23:20:04 31° NNE 23:20:18 31° NNE visible
19 Jul -1.7 22:28:34 10° NW 22:31:20 24° NNE 22:33:12 15° ENE visible
20 Jul -1.3 00:05:02 10° WNW 00:06:03 18° WNW 00:06:03 18° WNW visible
20 Jul -1.4 21:39:58 10° NW 21:42:30 20° NNE 21:45:03 10° ENE visible
20 Jul -2.7 23:16:25 10° NW 23:18:55 45° NNW 23:18:55 45° NNW visible
21 Jul -1.2 20:51:14 10° NW 20:53:35 18° N 20:55:56 10° NE visible
21 Jul -2.8 22:27:46 10° NW 22:30:56 41° NNE 22:31:46 34° ENE visible
22 Jul -2.2 21:39:05 10° NW 21:42:03 29° NNE 21:44:35 13° E visible
22 Jul -2.0 23:15:40 10° WNW 23:17:27 27° W 23:17:27 27° W visible
23 Jul -1.8 20:50:19 10° NW 20:53:02 23° NNE 20:55:45 10° ENE visible
23 Jul -4.0 22:26:45 10° WNW 22:30:04 84° SW 22:30:14 78° SSE visible
24 Jul -3.5 21:37:52 10° NW 21:41:08 59° NNE 21:43:01 23° ESE visible
24 Jul -1.1 23:15:13 10° W 23:15:52 13° W 23:15:52 13° W visible
